Location: Colle San Luigi
(43.5500°N, 13.4167°E)
Time: 21:53:30
(UTC+00:00)

STARLINK-1212 - Pass Details

Date: 09 April 2020
Orbit: 378 x 382 km, 53.0° (Epoch: 05 June)

Event Time Altitude Azimuth Distance (km) Brightness Sun altitude
Rises 18:20:57 0° 309° (NW) 2,256 8.3 -7.5°
Reaches altitude 10° 18:23:11 10° 322° (NW) 1,402 6.7 -7.9°
Maximum altitude 18:25:56 27° 23° (NNE) 774 4.4 -8.3°
Enters shadow 18:28:37 10° 83° (E) 1,382 5.1 -8.8°
